[[{"header":{"parameterUnit":"m.s-1","parameterCategory":1,"la1":30.2991,"la2":30.254,"lo1":-89.0895,"lo2":-89.0444,"dy":0.0017,"dx":0.0017,"nx":28,"ny":28,"refTime":"2024-06-01T09:00:00:Z","depth":0,"parameterNumber":2,"parameterNumberName":"U-component_of_WINDS"},"data":[0,0,0,0,0,0,0,0,0,0,0,0,0,0,0,0,0,0,0,0,0,0,0,0,0,0,0,0,0,0,0,0,0,0,0,0,0,0,0,0,0,0,0,0,0,0,0,0,0,0,0,0,0,0,0,0,0,0,4.0927,4.0927,0,4.0949,4.0949,4.0949,4.0852,4.0849,4.0846,4.0844,4.0864,4.0868,4.0871,0,0,0,0,0,0,0,0,0,0,0,0,0,4.0798,4.0801,4.0927,4.0927,4.0927,4.0949,4.0949,4.0949,4.0853,4.0849,4.0846,4.0843,4.0863,4.0867,4.0871,0,0,0,0,0,0,0,0,0,0,0,0,0,4.084,4.0802,4.0927,4.0882,4.0878,4.0949,4.0949,4.0949,4.0853,4.0849,4.0845,4.0841,4.0862,4.0867,4.0872,4.0986,0,0,4.0886,4.0888,0,0,0,0,0,0,0,0,4.0838,4.0845,4.0888,4.0885,4.0881,4.0893,4.0911,4.0962,4.0854,4.0863,4.0844,4.0839,4.0877,4.0881,4.0894,4.0987,4.0988,4.0887,4.0889,4.0892,4.0893,0,0,0,0,0,0,0,4.0835,4.0844,4.0935,4.0889,4.0884,4.0859,4.0861,4.092,4.0893,4.0862,4.0855,4.0859,4.0875,4.089,4.0894,4.0988,4.0886,4.0891,4.0894,4.0895,4.1173,4.1177,0,0,0,0,0,0,4.0839,4.0842,4.0935,4.0936,4.0849,4.0865,4.0867,4.0894,4.0893,4.0888,4.0862,4.0854,4.0884,4.0888,4.0894,4.1025,4.0891,4.0896,4.0899,4.1168,4.1174,4.1179,0,0,0,0,0,0,4.0836,4.0848,4.0934,4.0887,4.0896,4.0872,4.0903,4.0896,4.0911,4.0893,4.0888,4.0883,4.088,4.0887,4.0963,4.1025,4.0898,4.0902,4.1163,4.117,4.1176,4.1291,0,0,0,0,0,0,4.0833,4.0848,4.0892,4.0889,4.0899,4.1004,4.0907,4.09,4.092,4.0909,4.0911,4.0907,4.0878,4.0957,4.0968,4.1029,4.0906,4.1157,4.1166,4.1174,4.1281,4.1301,4.1317,0,0,0,0,0,4.0829,4.0923,4.0894,4.0906,4.0954,4.1007,4.1013,4.0978,4.0925,4.0968,4.0957,4.0907,4.1017,4.0965,4.0977,4.1041,4.1153,4.1164,4.1173,4.1273,4.1297,4.1317,0,0,0,0,0,0,4.0934,4.0922,4.089,4.0987,4.0999,4.0991,4.1044,4.1004,4.1031,4.102,4.0975,4.0976,4.1059,4.1058,4.1,4.115,4.1076,4.1089,4.1148,4.117,4.1187,4.1185,4.091,0,0,0,0,0,4.0968,4.1014,4.1001,4.1087,4.1095,4.1069,4.1091,4.1063,4.1074,4.1078,4.1072,4.1083,4.112,4.1145,4.1178,4.1281,4.1279,4.1331,4.1349,4.1364,4.1374,4.1426,4.1448,4.1212,4.1212,4.1212,0,0,4.104,4.1039,4.107,4.1108,4.1114,4.1161,4.1074,4.1128,4.1161,4.1086,4.1156,4.1153,4.1162,4.1252,4.1291,4.1253,4.144,4.1376,4.1388,4.1391,4.1439,4.1461,4.1481,4.1219,4.1218,4.1216,0,0,4.1193,4.1198,4.1269,4.1277,4.1287,4.1269,4.1287,4.1285,4.1279,4.135,4.1293,4.1333,4.1398,4.1406,4.1419,4.1575,4.1529,4.1587,4.1679,4.173,4.1749,4.1765,4.1818,4.1838,4.1599,4.1599,4.1599,0,4.128,4.1349,4.1311,4.1368,4.1385,4.132,4.139,4.1399,4.142,4.1433,4.1391,4.147,4.1472,4.1561,4.1599,4.1613,4.1629,4.1585,4.175,4.1766,4.178,4.183,4.185,4.1606,4.1605,4.1604,4.1604,0,4.1454,4.1502,4.1558,4.158,4.1603,4.1667,4.1638,4.1666,4.1636,4.1622,4.1694,4.1694,4.1725,4.1744,4.1716,4.1829,4.1805,4.1758,4.1681,4.181,4.1856,4.1875,4.1615,4.1613,4.1611,4.1609,0,0,4.1672,4.1671,4.1692,4.17,4.1707,4.1743,4.1803,4.1833,4.1857,4.1874,4.1922,4.1978,4.1933,4.1948,4.192,4.1965,4.2085,4.1911,4.1911,4.1941,4.2207,4.2241,4.2263,4.2056,4.206,4.2062,4.2205,0,4.182,4.1922,4.189,4.1993,4.2035,4.1974,4.2026,4.2035,4.2024,4.2058,4.2045,4.2084,4.2024,4.2032,4.2074,4.2062,4.2137,4.2051,4.2098,4.21,4.2094,4.2288,4.2324,4.2459,4.2223,4.2226,4.2228,0,4.2006,4.2029,4.2137,4.2134,4.215,4.2198,4.2222,4.2256,4.2264,4.2253,4.2269,4.2231,4.2288,4.2214,4.2291,4.2233,4.2251,4.2248,4.2252,4.2252,4.217,4.2291,4.2501,4.252,4.2257,4.2254,4.2252,0,4.215,4.2209,4.228,4.2289,4.2289,4.2323,4.2324,4.2329,4.2348,4.237,4.2381,4.241,4.2424,4.2446,4.2416,4.2366,4.2497,4.2421,4.2487,4.2488,4.2515,4.2513,4.2728,4.2531,4.2531,4.2531,4.253,0,4.2317,4.2384,4.2345,4.2388,4.2461,4.2423,4.2496,4.249,4.2495,4.2535,4.2484,4.2523,4.2482,4.2517,4.2494,4.256,4.2568,4.2559,4.2551,4.2561,4.2562,4.257,4.2559,4.2536,4.2535,4.2534,4.2533,0,4.249,4.2466,4.2539,4.2533,4.2533,4.2587,4.258,4.2619,4.2605,4.2656,4.2666,4.2643,4.2681,4.2654,4.2692,4.2677,4.2762,4.2743,4.2759,4.2753,4.2819,4.2812,4.3044,4.3071,4.286,4.2862,4.2864,0,4.2596,4.2646,4.2645,4.2668,4.2673,4.2711,4.2731,4.2695,4.2718,4.2731,4.2768,4.2802,4.2827,4.289,4.2876,4.2904,4.2884,4.2963,4.2888,4.2896,4.2881,4.2878,4.2881,4.2977,4.298,4.2982,4.2984,0,4.2786,4.2771,4.2802,4.2829,4.2854,4.2873,4.2888,4.291,4.2874,4.2901,4.294,4.2959,4.2998,4.3031,4.3054,4.3054,4.3013,4.3008,4.3024,4.3034,4.304,4.3034,4.2797,4.3002,4.3,4.2999,4.2998,4.2997,4.2926,4.2967,4.2972,4.3007,4.3015,4.303,4.3065,4.3055,4.3087,4.3115,4.3093,4.3138,4.3143,4.317,4.3176,4.321,4.3177,4.3201,4.3207,4.3212,4.322,4.3037,4.3214,4.3214,4.3213,4.3213,4.3212,0,4.311,4.311,4.3144,4.3166,4.3193,4.3153,4.3167,4.3193,4.3233,4.3242,4.3268,4.3311,4.3343,4.3332,4.336,4.3389,4.3371,4.3397,4.3393,4.3393,4.325,4.3231,4.3412,4.3412,4.3412,4.3412,4.3412,4.3412,4.3209,4.3275,4.3262,4.333,4.333,4.3373,4.3385,4.3398,4.3405,4.3455,4.3481,4.3474,4.3475,4.3502,4.3529,4.3525,4.3537,4.357,4.3559,4.3424,4.3404,4.3385,4.3367,4.3574,4.3574,4.3699,4.37,4.3701]},{"header":{"parameterUnit":"m.s-1","parameterCategory":1,"la1":30.2991,"la2":30.254,"lo1":-89.0895,"lo2":-89.0444,"dy":0.0017,"dx":0.0017,"nx":28,"ny":28,"refTime":"2024-06-01T09:00:00:Z","depth":0,"parameterNumber":3,"parameterNumberName":"V-component_of_WINDS"},"data":[0,0,0,0,0,0,0,0,0,0,0,0,0,0,0,0,0,0,0,0,0,0,0,0,0,0,0,0,0,0,0,0,0,0,0,0,0,0,0,0,0,0,0,0,0,0,0,0,0,0,0,0,0,0,0,0,0,0,5.9348,5.935,0,5.9557,5.956,5.9562,5.955,5.9547,5.9544,5.9541,5.9754,5.9762,5.9771,0,0,0,0,0,0,0,0,0,0,0,0,0,5.8934,5.8942,5.9348,5.935,5.9353,5.9557,5.956,5.9563,5.955,5.9546,5.9543,5.9539,5.9751,5.9761,5.9771,0,0,0,0,0,0,0,0,0,0,0,0,0,5.9126,5.8945,5.9347,5.9371,5.9376,5.9556,5.956,5.9564,5.9551,5.9546,5.9542,5.9538,5.9748,5.976,5.9773,5.9943,0,0,5.9812,5.9817,0,0,0,0,0,0,0,0,5.9115,5.9141,5.9365,5.937,5.9375,5.9523,5.9492,5.9691,5.9552,5.9484,5.9541,5.9535,5.9681,5.9699,5.9748,5.9953,5.9962,5.9813,5.9821,5.9826,5.983,0,0,0,0,0,0,0,5.9102,5.9132,5.9431,5.9368,5.9375,5.9371,5.9393,5.953,5.9605,5.949,5.9489,5.9515,5.9682,5.9736,5.9753,5.9965,5.9813,5.9824,5.9832,5.9837,6.0318,6.0323,0,0,0,0,0,0,5.9083,5.9121,5.9424,5.9437,5.9231,5.9382,5.9407,5.948,5.9604,5.9619,5.9518,5.9513,5.9716,5.9738,5.976,5.9966,5.9826,5.9838,5.9845,6.0313,6.0319,6.0325,0,0,0,0,0,0,5.9075,5.9111,5.9416,5.9279,5.9318,5.9394,5.9476,5.9486,5.954,5.9625,5.9639,5.9559,5.9713,5.9742,5.9897,5.9974,5.9844,5.9855,6.0307,6.0315,6.0322,6.0381,0,0,0,0,0,0,5.9063,5.9108,5.9174,5.9281,5.9325,5.955,5.9481,5.9494,5.9562,5.9557,5.9667,5.9681,5.9712,5.9878,5.991,5.9989,5.9865,6.0301,6.0311,6.032,6.0372,6.039,6.0404,0,0,0,0,0,5.9048,5.9182,5.9177,5.9214,5.9409,5.9555,5.958,5.9613,5.9568,5.9635,5.9689,5.9677,5.996,5.9894,5.993,6.0014,6.0296,6.0308,6.0319,6.0365,6.0386,6.0404,0,0,0,0,0,0,5.9083,5.9197,5.9193,5.9365,5.945,5.9552,5.9638,5.9635,5.9734,5.9726,5.9763,5.9787,5.9943,5.9994,5.9918,6.0184,6.0122,6.0141,6.0145,6.0166,6.0181,6.0166,5.9876,0,0,0,0,0,5.9111,5.9219,5.9313,5.9456,5.9499,5.9561,5.9626,5.9644,5.9733,5.9769,5.9835,5.9922,6.003,6.0101,6.0205,6.038,6.0402,6.0455,6.047,6.0483,6.0499,6.0593,6.0617,6.0363,6.0363,6.0362,0,0,5.9169,5.9245,5.9311,5.9465,5.9533,5.9644,5.9592,5.9712,5.9794,5.9787,5.9938,5.9989,6.0088,6.0253,6.0329,6.03,6.0574,6.0498,6.0507,6.0517,6.0608,6.0632,6.0653,6.0371,6.0369,6.0368,0,0,5.9332,5.9401,5.9527,5.9596,5.97,5.9739,5.9769,5.9872,5.9906,6.0057,6.0054,6.0151,6.0338,6.0408,6.0468,6.0655,6.0647,6.0688,6.0771,6.0863,6.0883,6.0901,6.0966,6.0989,6.0704,6.0704,6.0704,0,5.9392,5.956,5.9592,5.9713,5.978,5.9779,5.9906,5.9971,6.0103,6.0149,6.0115,6.0347,6.0414,6.0594,6.064,6.0689,6.0723,6.0676,6.0877,6.0896,6.0913,6.0976,6.1,6.0708,6.0708,6.0707,6.0707,0,5.9627,5.9744,5.9833,5.996,6.0037,6.0161,6.0211,6.0285,6.0296,6.0339,6.0491,6.0571,6.0691,6.0735,6.0747,6.0917,6.0896,6.0869,6.0808,6.0941,6.1,6.1025,6.0714,6.0713,6.0711,6.071,0,0,5.982,5.9962,5.9994,6.0051,6.0164,6.0254,6.0376,6.0493,6.0555,6.0646,6.0749,6.0905,6.0881,6.0949,6.0969,6.1049,6.119,6.1012,6.1015,6.1042,6.138,6.1399,6.1427,6.1185,6.119,6.1194,6.1372,0,5.9994,6.0212,6.0243,6.0435,6.0542,6.0541,6.0647,6.0727,6.077,6.0866,6.0913,6.1023,6.0983,6.1024,6.1103,6.1156,6.1259,6.1144,6.128,6.1285,6.1255,6.1458,6.1479,6.1643,6.1395,6.1399,6.1402,0,6.0227,6.0323,6.0525,6.0621,6.0667,6.0763,6.0871,6.0964,6.1053,6.1079,6.1154,6.1163,6.1289,6.1222,6.1394,6.1315,6.1373,6.1407,6.1414,6.1428,6.1351,6.1477,6.1697,6.1721,6.144,6.1437,6.1434,0,6.0346,6.0526,6.0669,6.0718,6.0835,6.0901,6.0953,6.1038,6.1106,6.12,6.1244,6.1352,6.1411,6.1494,6.1532,6.148,6.1701,6.1638,6.1725,6.1724,6.1772,6.1768,6.2003,6.181,6.1809,6.1809,6.1808,0,6.0537,6.066,6.0724,6.0813,6.095,6.0984,6.1119,6.1169,6.1244,6.1341,6.1347,6.1438,6.1482,6.1579,6.1609,6.1746,6.1773,6.1796,6.1803,6.1796,6.1793,6.1834,6.1823,6.1815,6.1814,6.1813,6.1812,0,6.0693,6.0741,6.0897,6.0994,6.1021,6.1118,6.12,6.1285,6.1327,6.1449,6.148,6.1545,6.1659,6.1705,6.1845,6.1865,6.2023,6.2021,6.1993,6.1994,6.2079,6.207,6.2348,6.2386,6.2168,6.217,6.2171,0,6.0812,6.0907,6.1013,6.1078,6.1131,6.1237,6.1305,6.1342,6.1413,6.1522,6.1593,6.1707,6.1801,6.1983,6.2042,6.2149,6.2149,6.2239,6.2165,6.2155,6.2149,6.2143,6.2152,6.2253,6.2255,6.2257,6.2258,0,6.1017,6.1036,6.1134,6.1241,6.1323,6.1409,6.1492,6.1545,6.1595,6.1674,6.1791,6.1863,6.2005,6.2118,6.2228,6.2279,6.2277,6.2281,6.2307,6.23,6.228,6.2291,6.2029,6.2274,6.2273,6.2272,6.2271,6.227,6.1158,6.1241,6.1329,6.1438,6.1504,6.1582,6.1666,6.1717,6.1815,6.1934,6.195,6.2074,6.216,6.2307,6.2363,6.246,6.2437,6.2474,6.2484,6.2492,6.2497,6.2264,6.248,6.248,6.248,6.2479,6.2479,0,6.1363,6.1418,6.1518,6.1635,6.172,6.171,6.1801,6.1873,6.1983,6.2063,6.2154,6.2287,6.2396,6.2463,6.2572,6.2637,6.2639,6.2665,6.266,6.2672,6.2513,6.2479,6.2661,6.2661,6.2661,6.2661,6.2661,6.2661,6.1479,6.1619,6.1648,6.182,6.1874,6.1997,6.2049,6.212,6.2184,6.2333,6.2423,6.2466,6.254,6.2654,6.2753,6.277,6.2809,6.2837,6.2852,6.2702,6.2683,6.2665,6.2634,6.2845,6.2846,6.3003,6.3004,6.3005]}]]